TimeCDT,TemperatureF,Dew PointF,Humidity,Sea Level PressureIn,VisibilityMPH,Wind Direction,Wind SpeedMPH,Gust SpeedMPH,PrecipitationIn,Events,Conditions,WindDirDegrees,DateUTC
12:15 AM,46.6,41.4,82,29.99,10.0,Calm,Calm,-,N/A,,Scattered Clouds,0,2012-10-15 05:15:00
12:35 AM,46.8,41.9,83,29.99,10.0,Calm,Calm,-,N/A,,Clear,0,2012-10-15 05:35:00
12:55 AM,45.3,40.3,83,29.99,10.0,Calm,Calm,-,N/A,,Scattered Clouds,0,2012-10-15 05:55:00
1:15 AM,46.2,41.0,82,29.99,10.0,Calm,Calm,-,N/A,,Scattered Clouds,0,2012-10-15 06:15:00
1:35 AM,46.4,41.0,81,29.99,10.0,Calm,Calm,-,N/A,,Scattered Clouds,0,2012-10-15 06:35:00
1:55 AM,43.9,41.0,90,29.99,10.0,Calm,Calm,-,N/A,,Scattered Clouds,0,2012-10-15 06:55:00
2:15 AM,45.5,41.2,85,29.99,10.0,Calm,Calm,-,N/A,,Mostly Cloudy,0,2012-10-15 07:15:00
2:35 AM,44.6,40.5,85,29.99,10.0,Calm,Calm,-,N/A,,Scattered Clouds,0,2012-10-15 07:35:00
2:55 AM,43.7,40.5,88,29.98,10.0,Calm,Calm,-,N/A,,Clear,0,2012-10-15 07:55:00
3:15 AM,42.8,40.1,90,29.98,10.0,Calm,Calm,-,N/A,,Clear,0,2012-10-15 08:15:00
3:35 AM,42.8,40.5,91,29.98,10.0,Calm,Calm,-,N/A,,Clear,0,2012-10-15 08:35:00
3:55 AM,42.8,40.5,91,29.97,10.0,Calm,Calm,-,N/A,,Clear,0,2012-10-15 08:55:00
4:15 AM,42.8,40.1,90,29.97,10.0,Calm,Calm,-,N/A,,Clear,0,2012-10-15 09:15:00
4:55 AM,43.0,41.2,93,29.97,10.0,Calm,Calm,-,N/A,,Clear,0,2012-10-15 09:55:00
5:15 AM,42.6,41.7,97,29.97,10.0,Calm,Calm,-,N/A,,Clear,0,2012-10-15 10:15:00
5:35 AM,42.1,41.2,97,29.96,10.0,Calm,Calm,-,N/A,,Clear,0,2012-10-15 10:35:00
5:55 AM,43.5,42.4,96,29.96,10.0,Calm,Calm,-,N/A,,Clear,0,2012-10-15 10:55:00
6:15 AM,44.6,41.2,88,29.96,10.0,Calm,Calm,-,N/A,,Clear,0,2012-10-15 11:15:00
6:35 AM,43.0,40.5,91,29.96,10.0,Calm,Calm,-,N/A,,Clear,0,2012-10-15 11:35:00
6:55 AM,40.8,39.4,95,29.97,10.0,Calm,Calm,-,N/A,,Clear,0,2012-10-15 11:55:00
7:15 AM,37.8,37.0,97,29.97,10.0,Calm,Calm,-,N/A,,Clear,0,2012-10-15 12:15:00
7:35 AM,39.2,39.0,99,29.97,10.0,Calm,Calm,-,N/A,,Clear,0,2012-10-15 12:35:00
7:55 AM,39.7,39.2,98,29.97,10.0,Calm,Calm,-,N/A,,Clear,0,2012-10-15 12:55:00
8:15 AM,39.7,39.2,98,29.97,10.0,Calm,Calm,-,N/A,,Clear,0,2012-10-15 13:15:00
8:35 AM,42.4,41.9,98,29.98,10.0,Calm,Calm,-,N/A,,Clear,0,2012-10-15 13:35:00
8:55 AM,45.9,44.1,93,29.98,10.0,Calm,Calm,-,N/A,,Clear,0,2012-10-15 13:55:00
9:15 AM,48.7,44.8,86,29.99,10.0,Calm,Calm,-,N/A,,Clear,0,2012-10-15 14:15:00
9:35 AM,52.2,43.0,71,29.99,10.0,SSE,4.6,-,N/A,,Clear,150,2012-10-15 14:35:00
9:55 AM,54.0,43.7,68,29.99,10.0,SE,4.6,-,N/A,,Clear,140,2012-10-15 14:55:00
10:15 AM,56.5,43.9,63,29.98,10.0,SE,5.8,-,N/A,,Clear,140,2012-10-15 15:15:00
10:35 AM,58.6,43.3,57,29.97,10.0,SE,12.7,17.3,N/A,,Clear,130,2012-10-15 15:35:00
10:55 AM,60.8,42.8,52,29.97,10.0,SE,8.1,-,N/A,,Clear,140,2012-10-15 15:55:00
11:15 AM,61.9,42.4,49,29.96,10.0,SE,9.2,-,N/A,,Clear,130,2012-10-15 16:15:00
11:35 AM,63.9,42.8,46,29.96,10.0,SE,10.4,-,N/A,,Clear,140,2012-10-15 16:35:00
11:55 AM,65.1,43.5,45,29.95,10.0,SSE,8.1,-,N/A,,Clear,160,2012-10-15 16:55:00
12:15 PM,66.4,44.1,44,29.94,10.0,SE,10.4,-,N/A,,Clear,130,2012-10-15 17:15:00
12:35 PM,67.6,44.4,43,29.94,10.0,SE,11.5,-,N/A,,Clear,140,2012-10-15 17:35:00
12:55 PM,69.3,43.9,40,29.93,10.0,SSE,10.4,-,N/A,,Clear,160,2012-10-15 17:55:00
1:15 PM,70.7,43.3,37,29.92,10.0,SE,10.4,-,N/A,,Clear,130,2012-10-15 18:15:00
1:35 PM,71.6,42.8,35,29.91,10.0,SSE,5.8,-,N/A,,Clear,160,2012-10-15 18:35:00
1:55 PM,72.1,42.4,34,29.89,10.0,SSE,9.2,-,N/A,,Clear,150,2012-10-15 18:55:00
2:15 PM,72.7,41.9,33,29.88,10.0,South,9.2,-,N/A,,Clear,170,2012-10-15 19:15:00
2:35 PM,73.4,41.9,32,29.87,10.0,South,6.9,-,N/A,,Clear,170,2012-10-15 19:35:00
2:55 PM,73.2,42.4,33,29.86,10.0,SSE,10.4,-,N/A,,Clear,160,2012-10-15 19:55:00
3:15 PM,74.5,43.3,33,29.86,10.0,SSE,9.2,-,N/A,,Clear,150,2012-10-15 20:15:00
3:35 PM,74.3,43.2,33,29.85,10.0,SSE,10.4,-,N/A,,Clear,160,2012-10-15 20:35:00
3:55 PM,74.3,43.5,33,29.84,10.0,SSE,10.4,-,N/A,,Clear,160,2012-10-15 20:55:00
4:15 PM,75.6,43.7,32,29.84,10.0,SSE,10.4,17.3,N/A,,Clear,160,2012-10-15 21:15:00
4:35 PM,76.3,43.5,31,29.83,10.0,South,12.7,17.3,N/A,,Clear,170,2012-10-15 21:35:00
4:55 PM,74.5,43.9,33,29.82,10.0,SSE,10.4,17.3,N/A,,Clear,150,2012-10-15 21:55:00
5:15 PM,74.3,44.2,34,29.82,10.0,SE,11.5,17.3,N/A,,Clear,140,2012-10-15 22:15:00
5:35 PM,72.5,44.6,37,29.81,10.0,SE,10.4,-,N/A,,Clear,140,2012-10-15 22:35:00
5:55 PM,72.1,45.5,38,29.81,10.0,SE,10.4,-,N/A,,Clear,140,2012-10-15 22:55:00
6:15 PM,70.9,45.9,41,29.80,10.0,SE,9.2,-,N/A,,Clear,130,2012-10-15 23:15:00
6:35 PM,69.3,46.6,44,29.80,10.0,SE,8.1,-,N/A,,Clear,130,2012-10-15 23:35:00
6:55 PM,66.0,47.5,51,29.80,10.0,ESE,5.8,-,N/A,,Clear,120,2012-10-15 23:55:00
7:15 PM,65.1,48.2,54,29.79,10.0,SE,5.8,-,N/A,,Clear,130,2012-10-16 00:15:00
7:35 PM,64.4,48.7,57,29.79,10.0,SE,6.9,-,N/A,,Clear,130,2012-10-16 00:35:00
7:55 PM,65.5,48.6,54,29.79,10.0,ESE,8.1,-,N/A,,Clear,120,2012-10-16 00:55:00
8:15 PM,65.3,48.4,54,29.78,10.0,SE,9.2,-,N/A,,Clear,130,2012-10-16 01:15:00
8:35 PM,64.8,48.6,56,29.78,10.0,SE,8.1,-,N/A,,Clear,130,2012-10-16 01:35:00
8:55 PM,64.6,48.2,55,29.78,10.0,SE,11.5,-,N/A,,Clear,140,2012-10-16 01:55:00
9:15 PM,64.6,48.0,55,29.78,10.0,SE,10.4,-,N/A,,Clear,140,2012-10-16 02:15:00
9:35 PM,64.0,47.7,55,29.77,10.0,SE,11.5,-,N/A,,Clear,130,2012-10-16 02:35:00
9:55 PM,63.9,48.0,56,29.77,10.0,SE,10.4,-,N/A,,Clear,130,2012-10-16 02:55:00
10:15 PM,63.7,48.2,57,29.77,10.0,SE,9.2,-,N/A,,Clear,140,2012-10-16 03:15:00
10:35 PM,63.5,48.2,57,29.76,10.0,SE,11.5,-,N/A,,Clear,140,2012-10-16 03:35:00
10:55 PM,63.1,48.2,58,29.75,10.0,SE,12.7,16.1,N/A,,Clear,140,2012-10-16 03:55:00
11:15 PM,62.8,48.2,59,29.75,10.0,SSE,12.7,17.3,N/A,,Clear,150,2012-10-16 04:15:00
11:35 PM,61.9,48.2,61,29.74,10.0,SSE,11.5,-,N/A,,Clear,150,2012-10-16 04:35:00
11:55 PM,61.2,48.4,63,29.74,10.0,SE,11.5,-,N/A,,Clear,140,2012-10-16 04:55:00